sat.trackr.live / text

‹ back to catalog

STARLINK-33890

NORAD 65332 · 2025-189K

PAYLOAD ACTIVE UNKNOWN

§ Identity

Operator
Country
US
Launch date
2025-08-27
Launch site
AFETR
Launch vehicle
Mass (kg)
RCS (m²)

Purposes: comms

External: N2YO · Heavens-Above · Gunter

§ Orbital elements

Epoch: 2026-09-20T14:45:27.325440Z

Period
94.01 min
Inclination
53.1572°
Eccentricity
0.0001083
Mean motion
15.31716908 rev/d
Perigee alt
469.9 km
Apogee alt
471.4 km
Semi-major
6,848.8 km
B*
7.1338e-4
RAAN
19.7009°
Arg perigee
92.4041°
Mean anomaly
267.7085°
Rev number
5,977

§ Raw data

STARLINK-338901 65332U 25189K   26263.61489960  .00021848  00000+0  71338-3 0  99932 65332  53.1572  19.7009 0001083  92.4041 267.7085 15.31716908 59776

JSON: /api/v1/satellites/65332 · /tle

For live sub-satellite position, see the globe view (requires WebGL).

§ Visibility from observer

Set your observer location to see the next 7 days of passes ≥ 10°. The values pass through the URL so the page stays shareable.

No JS? Fill the form by hand. The geolocation button needs JavaScript.